Location: Stoke Bliss
(52.2667°N, 2.5167°W)
Time: 03:36:52
(UTC+00:00)

ERS-1 Rocket - Visible Passes

Search period start: 14 June 2021 00:00
Search period end: 24 June 2021 00:00
Orbit: 754 x 757 km, 98.4° (Epoch: 13 June)

Date Brightness Start Highest point End Pass type
(mag) Time Alt. Az. Time Alt. Az. Time Alt. Az.
14 Jun 4.7 22:45:54 10° SSW 22:50:04 26° W 22:54:17 10° NW visible
15 Jun 3.6 22:05:14 10° S 22:10:08 52° W 22:15:06 10° NNW visible
16 Jun 3.0 21:25:24 10° SSE 21:30:26 78° ENE 21:35:31 10° NNW visible
16 Jun 5.1 23:06:24 10° SW 23:09:50 18° W 23:13:18 10° NW visible
17 Jun 4.1 22:25:09 10° SSW 22:29:47 36° W 22:34:28 10° NNW visible
18 Jun 3.1 21:44:56 10° S 21:49:58 75° WSW 21:55:03 10° NNW visible
18 Jun 5.4 23:27:30 10° WSW 23:29:40 13° W 23:31:49 10° WNW visible
19 Jun 4.7 22:45:19 10° SSW 22:49:29 26° W 22:53:42 10° NW visible
20 Jun 3.6 22:04:39 10° S 22:09:34 53° W 22:14:31 10° NNW visible
21 Jun 3.0 21:24:50 10° SSE 21:29:51 77° ENE 21:34:56 10° NNW visible
21 Jun 5.1 23:05:47 10° SW 23:09:15 18° W 23:12:44 10° NW visible
22 Jun 4.1 22:24:33 10° SSW 22:29:12 37° W 22:33:53 10° NNW visible
23 Jun 3.1 21:44:22 10° S 21:49:24 76° WSW 21:54:28 10° NNW visible
23 Jun 5.4 23:26:52 10° WSW 23:29:04 13° W 23:31:17 10° WNW visible
